Flag for Vietnam Weather past 2 weeks in Ho Chi Minh, Vietnam

Now
86 °F

Partly sunny.


Feels Like: 95 °F
Forecast: 76 / 82 °F
Wind: 10 mph from Southwest

Location: Ho Chi Minh

Current Time: Aug 28, 2014 at 5:12:10 PM

Latest Report: Aug 28, 2014 at 4:30 PM


Visibility: N/A

Pressure: 29.71 "Hg

Humidity: 70%

Dew point: 75 °F

Location of Ho Chi MinhLocation

Historic Weather in Ho Chi Minh — Graph

°F

Ho Chi Minh temperature yesterday

Maximum temperature yesterday: 91 °F (at 4:00 PM)
Minimum temperature yesterday: 77 °F (at 12:00 AM)
Average temperature yesterday: 81 °F

Past Weeks' High & Low Weather Summary

 TemperatureHumidityPressure
High97 °F (Aug 21, 2:30 PM)100% (Aug 19, 4:00 PM)29.89 "Hg (Aug 19, 4:00 PM)
Low75 °F (Aug 15, 5:00 PM)44% (Aug 21, 1:30 PM)29.65 "Hg (Aug 25, 2:00 PM)
Average82 °F77%29.79 "Hg
* Reported Aug 13 4:00 PM — Aug 28 4:00 PM, Ho Chi Minh, Weather by CustomWeather, © 2014

Note: Actual official high and low records may vary slightly from our data, if they occured in-between our weather recording intervals... More about our weather records

Advertising

Ho Chi Minh weather history for previous 24 hours

 ConditionsComfort  
Time TempWeatherWind HumidityBarometerVisibility
4:00 PM
Aug 28
86 °FPartly sunny.12 mph70%29.68 "HgN/A
3:30 PM88 °FPartly sunny.12 mph62%29.68 "HgN/A
3:00 PM88 °FPartly sunny.8 mph62%29.68 "HgN/A
2:30 PM88 °FPartly sunny.8 mph62%29.71 "HgN/A
2:00 PM88 °FScattered clouds.10 mph66%29.71 "HgN/A
1:30 PM90 °FScattered clouds.16 mph59%29.71 "HgN/A
1:00 PM90 °FBroken clouds.12 mph55%29.74 "HgN/A
12:30 PM90 °FPartly sunny.9 mph59%29.74 "HgN/A
12:00 PM88 °FPartly sunny.10 mph62%29.77 "HgN/A
11:30 AM86 °FPartly sunny.9 mph66%29.77 "HgN/A
11:00 AM86 °FPartly sunny.9 mph70%29.80 "HgN/A
10:30 AM84 °FPartly sunny.7 mph70%29.80 "HgN/A
10:00 AM84 °FPartly sunny.8 mph74%29.80 "HgN/A
9:30 AM82 °FPartly sunny.6 mph79%29.80 "HgN/A
9:00 AM82 °FPartly sunny.7 mph79%29.80 "HgN/A
8:30 AM81 °FPartly sunny.8 mph84%29.80 "HgN/A
8:00 AM81 °FMore clouds than sun.5 mph84%29.80 "HgN/A
7:30 AM79 °FMore clouds than sun.3 mph89%29.80 "HgN/A
7:00 AM79 °FScattered clouds.5 mph89%29.77 "HgN/A
6:30 AM79 °FScattered clouds.6 mph89%29.77 "HgN/A
6:00 AM77 °FPartly sunny.7 mph94%29.77 "HgN/A
5:30 AM77 °FPassing clouds.8 mph94%29.77 "HgN/A
5:00 AM77 °FPassing clouds.5 mph94%29.74 "HgN/A
4:30 AM77 °FPassing clouds.5 mph94%29.74 "HgN/A
4:00 AM77 °FPassing clouds.3 mph94%29.74 "HgN/A
3:30 AM77 °FPassing clouds.5 mph94%29.74 "HgN/A
3:00 AM79 °FPassing clouds.5 mph89%29.74 "HgN/A
2:30 AM79 °FPassing clouds.5 mph89%29.74 "HgN/A
2:00 AM79 °FPassing clouds.6 mph89%29.74 "HgN/A
1:30 AM79 °FPassing clouds.5 mph89%29.77 "HgN/A
1:00 AM79 °FPassing clouds.5 mph89%29.77 "HgN/A
12:30 AM77 °FMostly cloudy.3 mph94%29.77 "HgN/A
12:00 AM77 °FLight rain. Mostly cloudy.5 mph94%29.77 "HgN/A
11:30 PM
Aug 27
77 °FLight rain. Mostly cloudy.5 mph89%29.77 "HgN/A
11:00 PM77 °FLight rain. Mostly cloudy.2 mph89%29.80 "HgN/A
10:00 PM77 °FLight rain. Partly cloudy.3 mph94%29.80 "Hg5 mi
9:30 PM77 °FLight rain. Partly cloudy.3 mph94%29.80 "Hg5 mi
9:00 PM77 °FThunderstorms. Partly cloudy.1 mph94%29.80 "HgN/A
8:30 PM77 °FThunderstorms. Passing clouds.2 mph94%29.77 "HgN/A
8:00 PM77 °FThunderstorms. Passing clouds.3 mph94%29.77 "Hg5 mi
7:30 PM77 °FThunderstorms. Partly cloudy.2 mph89%29.77 "Hg2 mi
7:00 PM81 °FThunderstorms. Partly cloudy.14 mph84%29.74 "Hg5 mi
6:30 PM84 °FPassing clouds.8 mph74%29.71 "Hg5 mi
6:00 PM84 °FScattered clouds.2 mph74%29.68 "HgN/A
5:30 PM86 °FScattered clouds.No wind66%29.68 "HgN/A
5:00 PM86 °FScattered clouds.2 mph70%29.68 "HgN/A
Weather by CustomWeather, © 2014

See weather overviewHow to use our weather pages